Overview Statistics Trail Chart Weather Telemetry Raw packets
 

This is the latest recevied weather packets stored in our database for station/object F5ZVO. If no packets are shown the sender has not sent any weather packets the latest 10 day(s).

<< 1 2 >>
Time Temp. Humidity Pressure Rain* Wind** Luminosity Snow
1788568854 19.44° C 38% 1023.2 hPa - - - -
1788567031 20° C 37% 1023.2 hPa - - - -
1788565228 20° C 37% 1023.4 hPa - - - -
1788563426 20° C 37% 1023.4 hPa - - - -
1788561624 20° C 39% 1023.5 hPa - - - -
1788559822 20° C 40% 1023.3 hPa - - - -
1788558018 20.56° C 34% 1023.1 hPa - - - -
1788556216 20.56° C 33% 1022.9 hPa - - - -
1788554414 21.11° C 33% 1023.1 hPa - - - -
1788552612 21.11° C 32% 1022.7 hPa - - - -
1788550809 21.67° C 33% 1022.2 hPa - - - -
1788549006 22.22° C 31% 1021.6 hPa - - - -
1788547203 22.78° C 33% 1021.1 hPa - - - -
1788082206 17.78° C 40% 1019.9 hPa - 5.36 m/s, 207° - -
1788080403 17.22° C 40% 1019.7 hPa - 5.36 m/s, 205° - -
1788078606 17.22° C 40% 1019.7 hPa - 5.36 m/s, 203° - -
1788076805 16.67° C 41% 1019.7 hPa - 5.36 m/s, 199° - -
1788075008 16.11° C 42% 1019.4 hPa - 4.47 m/s, 200° - -
1788073203 15.56° C 43% 1019.4 hPa - 4.47 m/s, 197° - -
1788071406 15° C 47% 1019.6 hPa - 4.47 m/s, 195° - -
1788069607 14.44° C 49% 1019.7 hPa - 4.47 m/s, 195° - -
1788067806 12.78° C 53% 1020 hPa - 4.02 m/s, 196° - -
1788064218 11.67° C 58% 1020.7 hPa - 3.13 m/s, 202° - -
1788062403 11.67° C 63% 1020.8 hPa - 3.13 m/s, 210° - -
1788060603 11.67° C 60% 1020.8 hPa - 2.68 m/s, 203° - -

* Rain since midnight (hover to see other rain measurements)
** Current wind speed in m/s (hover to see current wind gust speed)